QPF
0.00 0.00 0.00 0.00 0.00 0.00 0.00 0.00 0.00 0.00 0.00 0.00 0.00 0.00 0.00 0.00 0.00 0.01 0.01 0.01 0.01 0.01 0.01 0.01 0.02 0.02 0.02 0.02 0.03 0.03 0.04 0.04 0.04 0.02 0.01 0.01 0.01 0.01 0.01 0.01 0.01 0.01 0.01
0.00 0.00 0.00 0.00 0.00 0.00 0.00 0.00 0.00 0.00 0.00 0.00 0.00 0.00 0.00 0.00 0.00 0.01 0.01 0.01 0.01 0.01 0.01 0.01 0.01 0.01 0.02 0.02 0.02 0.03 0.03 0.04 0.04 0.03 0.02 0.01 0.01 0.01 0.01 0.02 0.02 0.02 0.02
0.00 0.00 0.00 0.00 0.00 0.00 0.00 0.00 0.00 0.00 0.00 0.00 0.00 0.00 0.00 0.00 0.00 0.01 0.01 0.01 0.01 0.01 0.01 0.01 0.01 0.01 0.01 0.01 0.02 0.02 0.03 0.03 0.04 0.04 0.02 0.02 0.01 0.01 0.02 0.02 0.02 0.02 0.02
0.00 0.00 0.00 0.00 0.00 0.00 0.00 0.00 0.00 0.00 0.00 0.00 0.00 0.00 0.00 0.00 0.00 0.00 0.01 0.01 0.01 0.01 0.01 0.01 0.02 0.02 0.02 0.02 0.02 0.02 0.03 0.03 0.04 0.04 0.03 0.03 0.02 0.02 0.03 0.02 0.02 0.03 0.03
0.00 0.00 0.00 0.00 0.00 0.00 0.00 0.00 0.00 0.00 0.00 0.00 0.00 0.00 0.00 0.00 0.00 0.01 0.01 0.01 0.01 0.01 0.01 0.01 0.01 0.02 0.02 0.02 0.02 0.02 0.03 0.04 0.05 0.05 0.04 0.03 0.02 0.02 0.02 0.02 0.03 0.03 0.04
0.00 0.00 0.00 0.00 0.00 0.00 0.00 0.00 0.00 0.00 0.00 0.00 0.00 0.01 0.01 0.01 0.01 0.01 0.01 0.01 0.01 0.01 0.01 0.01 0.01 0.01 0.01 0.02 0.02 0.02 0.03 0.04 0.04 0.04 0.04 0.04 0.03 0.03 0.03 0.03 0.04 0.05 0.05
0.00 0.00 0.00 0.00 0.00 0.00 0.00 0.00 0.00 0.00 0.01 0.01 0.01 0.01 0.01 0.01 0.01 0.01 0.01 0.01 0.01 0.01 0.01 0.01 0.01 0.01 0.01 0.01 0.01 0.02 0.03 0.04 0.04 0.04 0.04 0.04 0.04 0.04 0.04 0.05 0.05 0.06 0.05
0.00 0.00 0.00 0.00 0.00 0.00 0.00 0.00 0.00 0.00 0.01 0.01 0.01 0.01 0.01 0.01 0.02 0.01 0.01 0.01 0.01 0.01 0.01 0.01 0.01 0.01 0.01 0.02 0.02 0.02 0.02 0.03 0.04 0.04 0.05 0.05 0.05 0.04 0.05 0.06 0.06 0.07 0.07
0.00 0.00 0.00 0.00 0.00 0.00 0.00 0.00 0.01 0.01 0.01 0.01 0.01 0.01 0.01 0.02 0.03 0.02 0.02 0.01 0.01 0.01 0.01 0.01 0.01 0.01 0.01 0.02 0.02 0.03 0.04 0.04 0.05 0.05 0.06 0.05 0.05 0.05 0.06 0.06 0.07 0.08 0.07
0.00 0.00 0.00 0.00 0.00 0.00 0.00 0.01 0.01 0.01 0.01 0.02 0.02 0.02 0.02 0.02 0.03 0.03 0.02 0.02 0.02 0.02 0.01 0.01 0.01 0.01 0.01 0.01 0.01 0.02 0.02 0.02 0.03 0.03 0.04 0.05 0.05 0.05 0.06 0.06 0.06 0.07 0.07
0.00 0.00 0.00 0.00 0.00 0.00 0.00 0.01 0.01 0.01 0.01 0.02 0.02 0.02 0.02 0.03 0.03 0.03 0.03 0.02 0.02 0.02 0.02 0.02 0.02 0.03 0.02 0.02 0.02 0.02 0.02 0.02 0.02 0.02 0.02 0.02 0.02 0.02 0.02 0.03 0.05 0.06 0.08
0.01 0.01 0.01 0.01 0.01 0.01 0.01 0.01 0.01 0.01 0.02 0.02 0.02 0.02 0.02 0.02 0.03 0.03 0.03 0.03 0.03 0.02 0.02 0.02 0.02 0.03 0.02 0.02 0.02 0.02 0.02 0.02 0.01 0.02 0.02 0.02 0.03 0.03 0.03 0.03 0.04 0.05 0.06
0.01 0.01 0.01 0.01 0.01 0.01 0.01 0.01 0.01 0.02 0.02 0.02 0.03 0.03 0.03 0.03 0.03 0.03 0.03 0.03 0.03 0.02 0.02 0.02 0.01 0.01 0.01 0.01 0.01 0.01 0.01 0.01 0.01 0.02 0.02 0.02 0.03 0.03 0.03 0.03 0.03 0.04 0.04
0.01 0.02 0.02 0.02 0.02 0.02 0.02 0.02 0.02 0.02 0.02 0.02 0.02 0.02 0.03 0.03 0.03 0.03 0.02 0.02 0.02 0.02 0.02 0.02 0.02 0.01 0.01 0.01 0.01 0.01 0.01 0.01 0.01 0.02 0.02 0.02 0.02 0.02 0.03 0.03 0.03 0.03 0.04
0.02 0.03 0.03 0.03 0.04 0.04 0.04 0.03 0.03 0.03 0.02 0.02 0.02 0.02 0.02 0.02 0.02 0.02 0.01 0.02 0.02 0.02 0.02 0.02 0.02 0.01 0.01 0.01 0.01 0.01 0.01 0.01 0.02 0.02 0.02 0.02 0.02 0.02 0.03 0.03 0.04 0.04 0.04
0.02 0.03 0.03 0.03 0.03 0.03 0.03 0.03 0.03 0.02 0.02 0.02 0.01 0.01 0.01 0.01 0.01 0.01 0.01 0.01 0.01 0.01 0.01 0.01 0.01 0.01 0.02 0.02 0.02 0.02 0.02 0.02 0.02 0.02 0.03 0.03 0.03 0.04 0.04 0.04 0.04 0.05 0.05
0.03 0.03 0.03 0.02 0.02 0.02 0.02 0.02 0.02 0.02 0.01 0.01 0.01 0.01 0.01 0.01 0.01 0.01 0.01 0.01 0.01 0.01 0.01 0.01 0.01 0.01 0.01 0.01 0.01 0.02 0.02 0.02 0.02 0.03 0.03 0.03 0.03 0.04 0.04 0.04 0.04 0.04 0.04
0.03 0.04 0.04 0.03 0.03 0.02 0.02 0.02 0.02 0.02 0.02 0.02 0.02 0.01 0.01 0.01 0.01 0.01 0.01 0.01 0.01 0.01 0.01 0.01 0.01 0.01 0.01 0.01 0.01 0.01 0.01 0.02 0.02 0.02 0.03 0.03 0.03 0.03 0.03 0.03 0.03 0.03 0.04
0.04 0.04 0.04 0.03 0.03 0.03 0.03 0.03 0.03 0.03 0.02 0.02 0.03 0.03 0.03 0.03 0.02 0.02 0.02 0.02 0.01 0.01 0.01 0.01 0.01 0.01 0.01 0.01 0.01 0.01 0.01 0.01 0.02 0.02 0.03 0.03 0.02 0.03 0.03 0.03 0.03 0.03 0.04
0.03 0.03 0.03 0.03 0.03 0.03 0.03 0.03 0.03 0.03 0.03 0.02 0.02 0.02 0.03 0.03 0.03 0.03 0.02 0.02 0.02 0.02 0.02 0.01 0.01 0.01 0.01 0.01 0.01 0.01 0.01 0.01 0.02 0.02 0.02 0.02 0.02 0.03 0.03 0.03 0.03 0.04 0.04
0.02 0.02 0.02 0.02 0.02 0.02 0.03 0.03 0.03 0.03 0.03 0.03 0.03 0.03 0.03 0.02 0.02 0.02 0.02 0.02 0.02 0.02 0.02 0.02 0.02 0.01 0.01 0.01 0.01 0.01 0.01 0.01 0.01 0.01 0.02 0.02 0.02 0.02 0.03 0.03 0.03 0.04 0.04
0.01 0.01 0.02 0.02 0.02 0.02 0.02 0.02 0.03 0.03 0.03 0.03 0.03 0.03 0.03 0.03 0.03 0.02 0.02 0.02 0.02 0.02 0.02 0.02 0.02 0.01 0.01 0.01 0.01 0.01 0.01 0.01 0.01 0.01 0.01 0.02 0.02 0.02 0.02 0.02 0.03 0.03 0.04
0.01 0.01 0.01 0.01 0.02 0.02 0.02 0.02 0.02 0.02 0.02 0.02 0.03 0.03 0.03 0.03 0.02 0.02 0.02 0.02 0.02 0.02 0.01 0.01 0.01 0.01 0.01 0.01 0.01 0.01 0.01 0.01 0.01 0.01 0.01 0.01 0.01 0.02 0.02 0.02 0.02 0.03 0.03
0.02 0.02 0.02 0.02 0.02 0.02 0.02 0.02 0.02 0.02 0.02 0.02 0.02 0.02 0.02 0.02 0.02 0.02 0.02 0.02 0.02 0.01 0.01 0.01 0.01 0.01 0.01 0.00 0.00 0.01 0.01 0.01 0.01 0.01 0.01 0.01 0.01 0.02 0.02 0.03 0.03 0.03 0.03
0.02 0.02 0.02 0.02 0.02 0.02 0.02 0.02 0.02 0.02 0.02 0.02 0.02 0.02 0.02 0.02 0.02 0.02 0.02 0.02 0.01 0.01 0.01 0.01 0.01 0.00 0.00 0.00 0.00 0.00 0.00 0.01 0.01 0.01 0.01 0.02 0.02 0.02 0.02 0.03 0.03 0.03 0.03
0.01 0.01 0.01 0.01 0.01 0.01 0.01 0.01 0.01 0.02 0.01 0.01 0.01 0.01 0.01 0.01 0.01 0.01 0.01 0.01 0.01 0.01 0.01 0.01 0.01 0.00 0.00 0.00 0.00 0.00 0.01 0.01 0.01 0.01 0.02 0.02 0.02 0.02 0.02 0.02 0.03 0.03 0.03
MSLP
1006.31 1006.08 1005.83 1005.57 1005.30 1005.06 1004.89 1004.81 1004.86 1005.03 1005.34 1005.75 1006.25 1006.78 1007.31 1007.82 1008.27 1008.67 1009.03 1009.37 1009.71 1010.07 1010.47 1010.89 1011.34 1011.80 1012.24 1012.65 1013.00 1013.29 1013.53 1013.71 1013.86 1013.97 1014.06 1014.13 1014.19 1014.23 1014.25 1014.25 1014.23 1014.19 1014.15
1005.71 1005.46 1005.18 1004.87 1004.56 1004.26 1004.03 1003.89 1003.87 1003.99 1004.24 1004.61 1005.07 1005.57 1006.09 1006.58 1007.03 1007.43 1007.81 1008.16 1008.52 1008.91 1009.33 1009.78 1010.27 1010.76 1011.25 1011.71 1012.13 1012.50 1012.82 1013.10 1013.34 1013.56 1013.75 1013.92 1014.06 1014.16 1014.22 1014.24 1014.20 1014.12 1014.01
1005.03 1004.83 1004.58 1004.30 1004.00 1003.70 1003.45 1003.28 1003.21 1003.28 1003.47 1003.78 1004.17 1004.62 1005.09 1005.55 1005.99 1006.40 1006.80 1007.18 1007.59 1008.03 1008.50 1009.01 1009.55 1010.10 1010.65 1011.17 1011.65 1012.08 1012.47 1012.82 1013.14 1013.44 1013.71 1013.96 1014.17 1014.33 1014.42 1014.45 1014.39 1014.27 1014.08
1004.25 1004.16 1004.02 1003.82 1003.59 1003.35 1003.12 1002.95 1002.87 1002.89 1003.03 1003.27 1003.59 1003.98 1004.39 1004.82 1005.24 1005.66 1006.09 1006.53 1007.00 1007.51 1008.07 1008.66 1009.28 1009.90 1010.50 1011.06 1011.59 1012.06 1012.49 1012.87 1013.24 1013.58 1013.90 1014.20 1014.46 1014.66 1014.79 1014.82 1014.75 1014.58 1014.32
1003.36 1003.44 1003.46 1003.41 1003.30 1003.15 1003.00 1002.86 1002.79 1002.79 1002.88 1003.06 1003.32 1003.64 1004.01 1004.40 1004.82 1005.25 1005.72 1006.23 1006.79 1007.39 1008.04 1008.73 1009.43 1010.11 1010.77 1011.37 1011.91 1012.39 1012.82 1013.20 1013.57 1013.91 1014.25 1014.57 1014.85 1015.08 1015.23 1015.27 1015.19 1014.99 1014.66
1002.42 1002.68 1002.88 1003.01 1003.06 1003.04 1002.98 1002.91 1002.87 1002.87 1002.94 1003.08 1003.30 1003.57 1003.90 1004.28 1004.71 1005.18 1005.70 1006.28 1006.93 1007.63 1008.38 1009.15 1009.92 1010.66 1011.34 1011.96 1012.49 1012.94 1013.34 1013.68 1014.01 1014.33 1014.64 1014.95 1015.24 1015.47 1015.63 1015.69 1015.61 1015.39 1015.03
1001.46 1001.91 1002.31 1002.62 1002.83 1002.95 1003.00 1003.01 1003.02 1003.05 1003.13 1003.26 1003.46 1003.72 1004.04 1004.43 1004.87 1005.39 1005.97 1006.63 1007.35 1008.14 1008.96 1009.79 1010.61 1011.38 1012.07 1012.66 1013.16 1013.57 1013.90 1014.18 1014.44 1014.70 1014.97 1015.25 1015.52 1015.76 1015.93 1016.01 1015.94 1015.74 1015.37
1000.59 1001.20 1001.76 1002.22 1002.58 1002.82 1002.98 1003.09 1003.16 1003.24 1003.35 1003.51 1003.73 1004.01 1004.36 1004.77 1005.26 1005.83 1006.47 1007.18 1007.96 1008.80 1009.66 1010.52 1011.35 1012.11 1012.78 1013.34 1013.78 1014.12 1014.38 1014.59 1014.78 1014.97 1015.18 1015.42 1015.67 1015.90 1016.08 1016.18 1016.15 1015.97 1015.62
999.90 1000.62 1001.28 1001.86 1002.32 1002.67 1002.92 1003.11 1003.26 1003.41 1003.58 1003.79 1004.06 1004.39 1004.79 1005.26 1005.80 1006.42 1007.10 1007.85 1008.65 1009.50 1010.36 1011.20 1012.01 1012.73 1013.35 1013.85 1014.24 1014.51 1014.71 1014.85 1014.97 1015.11 1015.27 1015.46 1015.69 1015.91 1016.10 1016.21 1016.22 1016.07 1015.77
999.46 1000.23 1000.95 1001.58 1002.10 1002.52 1002.84 1003.10 1003.32 1003.54 1003.79 1004.08 1004.43 1004.84 1005.31 1005.85 1006.44 1007.09 1007.80 1008.55 1009.34 1010.16 1010.97 1011.77 1012.51 1013.17 1013.74 1014.18 1014.52 1014.74 1014.89 1014.99 1015.07 1015.16 1015.28 1015.44 1015.63 1015.83 1016.02 1016.14 1016.17 1016.07 1015.80
999.35 1000.10 1000.81 1001.45 1001.99 1002.43 1002.79 1003.10 1003.39 1003.70 1004.03 1004.41 1004.85 1005.35 1005.90 1006.50 1007.13 1007.81 1008.51 1009.24 1009.98 1010.73 1011.48 1012.19 1012.86 1013.45 1013.96 1014.36 1014.66 1014.87 1015.00 1015.08 1015.14 1015.20 1015.29 1015.42 1015.58 1015.75 1015.91 1016.03 1016.06 1015.98 1015.75
999.58 1000.27 1000.92 1001.51 1002.02 1002.46 1002.84 1003.19 1003.54 1003.92 1004.33 1004.81 1005.34 1005.92 1006.54 1007.19 1007.86 1008.54 1009.22 1009.89 1010.57 1011.23 1011.88 1012.51 1013.09 1013.62 1014.08 1014.46 1014.75 1014.96 1015.11 1015.20 1015.26 1015.32 1015.38 1015.47 1015.59 1015.71 1015.83 1015.91 1015.92 1015.83 1015.61
1000.14 1000.72 1001.28 1001.80 1002.26 1002.67 1003.05 1003.43 1003.82 1004.26 1004.75 1005.30 1005.91 1006.56 1007.24 1007.92 1008.60 1009.26 1009.90 1010.51 1011.10 1011.67 1012.23 1012.77 1013.29 1013.77 1014.20 1014.58 1014.88 1015.13 1015.30 1015.43 1015.50 1015.56 1015.61 1015.65 1015.71 1015.76 1015.80 1015.82 1015.77 1015.64 1015.40
1000.95 1001.41 1001.86 1002.29 1002.69 1003.07 1003.44 1003.83 1004.26 1004.75 1005.30 1005.90 1006.57 1007.26 1007.97 1008.66 1009.33 1009.96 1010.54 1011.09 1011.60 1012.09 1012.57 1013.04 1013.50 1013.95 1014.38 1014.77 1015.12 1015.41 1015.63 1015.79 1015.89 1015.95 1015.96 1015.95 1015.93 1015.90 1015.84 1015.75 1015.62 1015.42 1015.13
1001.93 1002.27 1002.62 1002.96 1003.30 1003.65 1004.01 1004.41 1004.86 1005.38 1005.97 1006.61 1007.30 1008.01 1008.71 1009.39 1010.03 1010.61 1011.14 1011.62 1012.07 1012.49 1012.91 1013.34 1013.78 1014.22 1014.66 1015.09 1015.48 1015.81 1016.08 1016.27 1016.39 1016.43 1016.41 1016.34 1016.23 1016.08 1015.91 1015.72 1015.48 1015.18 1014.82
1002.97 1003.21 1003.48 1003.75 1004.05 1004.37 1004.73 1005.14 1005.61 1006.14 1006.73 1007.38 1008.07 1008.76 1009.44 1010.08 1010.68 1011.21 1011.69 1012.12 1012.51 1012.90 1013.29 1013.69 1014.13 1014.58 1015.05 1015.50 1015.93 1016.30 1016.60 1016.81 1016.93 1016.95 1016.88 1016.73 1016.53 1016.28 1016.00 1015.68 1015.33 1014.93 1014.47
1004.00 1004.17 1004.37 1004.60 1004.88 1005.19 1005.55 1005.96 1006.44 1006.97 1007.56 1008.18 1008.84 1009.49 1010.12 1010.71 1011.25 1011.74 1012.17 1012.56 1012.93 1013.30 1013.68 1014.08 1014.52 1014.99 1015.48 1015.96 1016.41 1016.80 1017.11 1017.32 1017.42 1017.40 1017.28 1017.07 1016.78 1016.43 1016.05 1015.62 1015.17 1014.67 1014.11
1004.96 1005.08 1005.25 1005.46 1005.73 1006.05 1006.42 1006.84 1007.32 1007.84 1008.39 1008.98 1009.58 1010.17 1010.74 1011.26 1011.75 1012.19 1012.59 1012.96 1013.32 1013.68 1014.07 1014.49 1014.94 1015.42 1015.92 1016.40 1016.85 1017.24 1017.53 1017.72 1017.78 1017.73 1017.56 1017.28 1016.93 1016.51 1016.05 1015.54 1015.00 1014.41 1013.76
1005.84 1005.93 1006.09 1006.32 1006.60 1006.94 1007.32 1007.75 1008.21 1008.70 1009.21 1009.74 1010.27 1010.78 1011.28 1011.74 1012.18 1012.58 1012.95 1013.31 1013.67 1014.05 1014.45 1014.87 1015.33 1015.81 1016.30 1016.77 1017.19 1017.54 1017.80 1017.95 1017.98 1017.88 1017.67 1017.35 1016.96 1016.50 1015.98 1015.43 1014.83 1014.17 1013.44
1006.65 1006.74 1006.92 1007.16 1007.47 1007.83 1008.22 1008.64 1009.08 1009.54 1009.99 1010.45 1010.90 1011.33 1011.76 1012.16 1012.54 1012.91 1013.27 1013.63 1014.00 1014.38 1014.79 1015.22 1015.67 1016.14 1016.59 1017.02 1017.39 1017.69 1017.89 1017.99 1017.97 1017.84 1017.60 1017.27 1016.86 1016.39 1015.86 1015.28 1014.65 1013.95 1013.15
1007.41 1007.53 1007.73 1008.01 1008.34 1008.71 1009.11 1009.52 1009.93 1010.33 1010.72 1011.10 1011.46 1011.82 1012.17 1012.52 1012.86 1013.21 1013.56 1013.92 1014.29 1014.68 1015.09 1015.51 1015.94 1016.36 1016.77 1017.13 1017.43 1017.66 1017.80 1017.84 1017.78 1017.63 1017.38 1017.04 1016.64 1016.18 1015.67 1015.10 1014.46 1013.73 1012.90
1008.17 1008.32 1008.55 1008.86 1009.21 1009.59 1009.98 1010.36 1010.71 1011.05 1011.37 1011.67 1011.96 1012.24 1012.53 1012.83 1013.14 1013.47 1013.81 1014.17 1014.55 1014.94 1015.34 1015.73 1016.12 1016.49 1016.82 1017.10 1017.32 1017.47 1017.54 1017.53 1017.43 1017.26 1017.01 1016.69 1016.32 1015.89 1015.41 1014.86 1014.23 1013.51 1012.65
1008.93 1009.12 1009.39 1009.71 1010.07 1010.44 1010.79 1011.12 1011.42 1011.69 1011.93 1012.15 1012.37 1012.59 1012.82 1013.08 1013.37 1013.69 1014.03 1014.39 1014.76 1015.14 1015.51 1015.86 1016.19 1016.49 1016.74 1016.93 1017.06 1017.13 1017.14 1017.07 1016.94 1016.76 1016.52 1016.23 1015.89 1015.51 1015.07 1014.55 1013.95 1013.24 1012.39
1009.70 1009.92 1010.20 1010.53 1010.87 1011.21 1011.52 1011.79 1012.02 1012.21 1012.38 1012.53 1012.68 1012.85 1013.04 1013.28 1013.55 1013.86 1014.19 1014.55 1014.91 1015.26 1015.59 1015.90 1016.16 1016.37 1016.53 1016.63 1016.68 1016.67 1016.61 1016.50 1016.34 1016.15 1015.92 1015.66 1015.37 1015.03 1014.63 1014.16 1013.60 1012.92 1012.09
1010.43 1010.67 1010.96 1011.27 1011.58 1011.87 1012.12 1012.33 1012.48 1012.60 1012.69 1012.78 1012.88 1013.01 1013.18 1013.40 1013.66 1013.96 1014.29 1014.63 1014.97 1015.29 1015.58 1015.82 1016.00 1016.14 1016.21 1016.22 1016.18 1016.10 1015.98 1015.83 1015.66 1015.46 1015.25 1015.02 1014.76 1014.46 1014.11 1013.69 1013.17 1012.52 1011.74
1011.07 1011.32 1011.60 1011.88 1012.15 1012.38 1012.56 1012.69 1012.78 1012.83 1012.87 1012.91 1012.98 1013.09 1013.24 1013.45 1013.70 1013.99 1014.31 1014.63 1014.94 1015.22 1015.45 1015.62 1015.74 1015.79 1015.77 1015.71 1015.60 1015.45 1015.29 1015.10 1014.91 1014.72 1014.52 1014.32 1014.09 1013.83 1013.52 1013.14 1012.67 1012.08 1011.36
Thickness
5600 5601 5602 5604 5605 5606 5606 5606 5606 5606 5606 5605 5603 5602 5600 5598 5595 5592 5590 5588 5585 5582 5579 5576 5574 5571 5568 5566 5563 5560 5558 5556 5558 5565 5563 5562 5560 5558 5557 5555 5554 5552 5551
5583 5585 5587 5588 5589 5590 5591 5591 5591 5591 5591 5590 5589 5587 5586 5583 5581 5579 5577 5574 5572 5569 5566 5563 5560 5557 5554 5552 5549 5547 5545 5542 5541 5546 5549 5547 5546 5544 5543 5542 5542 5540 5539
5566 5569 5570 5572 5573 5574 5575 5575 5575 5575 5575 5574 5573 5572 5570 5568 5566 5564 5562 5560 5557 5555 5552 5549 5546 5542 5540 5537 5535 5533 5531 5529 5527 5528 5532 5531 5530 5529 5528 5528 5528 5527 5527
5549 5551 5553 5554 5555 5556 5557 5558 5558 5558 5557 5557 5556 5554 5553 5551 5549 5547 5545 5543 5541 5539 5536 5533 5530 5527 5525 5522 5520 5518 5515 5514 5512 5512 5513 5514 5513 5512 5509 5509 5512 5512 5512
5531 5533 5534 5536 5537 5537 5538 5539 5539 5539 5539 5539 5537 5536 5535 5533 5532 5530 5528 5527 5524 5522 5520 5517 5515 5511 5508 5506 5503 5502 5499 5497 5496 5495 5495 5496 5495 5493 5491 5490 5490 5494 5496
5514 5515 5516 5517 5518 5518 5519 5519 5520 5520 5520 5520 5519 5517 5516 5515 5514 5512 5510 5509 5508 5506 5504 5501 5498 5495 5491 5489 5486 5484 5482 5479 5479 5477 5476 5475 5475 5473 5471 5470 5469 5470 5476
5496 5497 5497 5498 5498 5499 5500 5500 5501 5501 5501 5500 5500 5499 5498 5496 5495 5494 5492 5491 5489 5487 5485 5483 5480 5477 5474 5472 5470 5468 5465 5461 5459 5457 5457 5457 5455 5453 5451 5451 5450 5450 5453
5478 5479 5479 5479 5479 5480 5480 5481 5482 5482 5481 5481 5480 5479 5478 5477 5476 5475 5473 5472 5470 5468 5465 5464 5461 5459 5456 5453 5452 5450 5448 5446 5443 5440 5439 5438 5436 5433 5431 5430 5430 5431 5435
5460 5460 5460 5460 5461 5461 5462 5463 5463 5463 5462 5461 5460 5460 5458 5457 5456 5455 5453 5453 5451 5449 5446 5444 5441 5439 5437 5434 5433 5432 5430 5428 5426 5423 5422 5420 5418 5416 5414 5412 5411 5410 5416
5442 5442 5442 5442 5443 5443 5443 5444 5444 5443 5443 5442 5440 5439 5438 5437 5436 5435 5434 5432 5431 5429 5427 5424 5421 5420 5418 5415 5413 5412 5412 5411 5409 5407 5405 5403 5401 5399 5397 5394 5392 5391 5392
5423 5422 5422 5423 5424 5424 5424 5425 5425 5423 5423 5422 5420 5419 5418 5417 5417 5416 5415 5413 5411 5409 5408 5405 5402 5400 5399 5397 5394 5393 5392 5391 5391 5389 5388 5387 5385 5382 5380 5377 5374 5373 5373
5404 5404 5404 5405 5406 5406 5405 5406 5406 5405 5403 5402 5401 5400 5398 5397 5397 5397 5395 5394 5392 5390 5388 5385 5384 5383 5381 5378 5376 5375 5373 5372 5370 5370 5369 5368 5367 5365 5362 5360 5358 5356 5356
5385 5385 5386 5386 5386 5387 5387 5388 5388 5387 5386 5385 5383 5381 5379 5377 5377 5377 5375 5373 5372 5370 5369 5366 5364 5363 5362 5359 5358 5356 5354 5351 5350 5349 5349 5349 5348 5346 5345 5344 5343 5342 5342
5366 5367 5368 5368 5369 5369 5368 5369 5369 5369 5368 5367 5365 5363 5360 5359 5358 5357 5356 5354 5353 5351 5348 5346 5345 5343 5342 5340 5338 5336 5333 5331 5330 5329 5330 5330 5329 5329 5328 5327 5326 5326 5328
5350 5350 5350 5351 5351 5351 5351 5351 5351 5350 5350 5349 5347 5345 5343 5342 5342 5340 5338 5336 5334 5332 5329 5326 5325 5323 5322 5321 5318 5315 5313 5311 5310 5310 5310 5310 5310 5310 5309 5308 5307 5307 5308
5334 5334 5334 5333 5333 5333 5333 5332 5332 5332 5332 5331 5330 5329 5327 5327 5325 5323 5321 5319 5317 5315 5310 5307 5306 5304 5302 5300 5298 5295 5293 5292 5291 5290 5289 5289 5289 5289 5290 5290 5289 5289 5291
5317 5318 5317 5317 5316 5316 5315 5314 5313 5313 5313 5313 5312 5311 5310 5309 5307 5306 5303 5301 5298 5296 5290 5287 5285 5282 5280 5279 5277 5275 5274 5272 5271 5270 5269 5268 5268 5269 5269 5270 5271 5272 5273
5300 5300 5300 5300 5299 5298 5297 5296 5295 5294 5293 5292 5292 5292 5292 5290 5288 5287 5284 5281 5276 5273 5269 5266 5264 5261 5259 5258 5256 5254 5253 5252 5251 5250 5249 5248 5248 5249 5250 5251 5252 5253 5256
5283 5283 5283 5282 5281 5281 5279 5278 5276 5275 5274 5272 5272 5271 5270 5269 5268 5266 5264 5258 5255 5253 5250 5247 5244 5241 5239 5238 5236 5234 5232 5232 5231 5230 5230 5230 5230 5230 5232 5233 5235 5237 5238
5267 5267 5266 5265 5264 5263 5261 5259 5258 5256 5254 5253 5252 5252 5249 5247 5245 5244 5241 5238 5236 5233 5231 5228 5226 5224 5222 5219 5217 5215 5214 5213 5212 5212 5212 5212 5213 5213 5214 5216 5218 5220 5222
5252 5251 5250 5248 5247 5245 5244 5242 5240 5238 5236 5235 5234 5234 5233 5229 5227 5225 5223 5220 5217 5215 5213 5211 5209 5207 5204 5202 5200 5198 5197 5196 5196 5195 5195 5196 5196 5197 5198 5199 5201 5203 5206
5236 5235 5233 5231 5229 5228 5226 5224 5222 5221 5219 5217 5216 5215 5215 5211 5209 5206 5205 5203 5200 5198 5196 5194 5193 5191 5188 5186 5184 5182 5181 5181 5180 5180 5179 5180 5180 5182 5183 5184 5186 5188 5190
5220 5218 5216 5214 5211 5210 5208 5206 5205 5203 5201 5199 5198 5196 5194 5192 5191 5189 5188 5186 5184 5183 5181 5179 5177 5175 5173 5171 5169 5167 5167 5167 5166 5166 5165 5166 5166 5167 5169 5170 5171 5173 5176
5202 5201 5199 5196 5194 5192 5191 5189 5188 5187 5185 5183 5181 5180 5178 5177 5175 5174 5173 5171 5170 5168 5166 5164 5162 5161 5160 5158 5157 5155 5155 5154 5154 5153 5153 5153 5154 5154 5155 5156 5158 5159 5161
5186 5184 5182 5180 5178 5176 5175 5173 5172 5170 5168 5167 5166 5165 5163 5162 5161 5160 5159 5157 5156 5154 5153 5151 5149 5148 5147 5146 5145 5145 5144 5144 5143 5142 5142 5142 5142 5142 5142 5144 5145 5147 5148
5170 5169 5167 5165 5163 5161 5159 5158 5156 5155 5154 5153 5152 5150 5149 5148 5147 5146 5145 5144 5142 5141 5140 5139 5138 5136 5135 5135 5134 5134 5134 5134 5133 5133 5132 5132 5132 5132 5131 5132 5134 5135 5137